| time (UTC) | temp F | wind direction | speed knots | gust knots | rain 1hr in | rain 24hr in | rain mn in | humidity % | barometer mb |
| 20260905200016 | 88 | 351 | 2.6 | 7.8 | 0.00 | 0.00 | 0.00 | 23 | 1017.6 |
| 20260905195416 | 88 | 332 | 3.5 | 7.8 | 0.00 | 0.00 | 0.00 | 23 | 1017.6 |
| 20260905194516 | 88 | 25 | 3.5 | 8.7 | 0.00 | 0.00 | 0.00 | 24 | 1017.6 |
| 20260905193616 | 87 | 15 | 2.6 | 8.7 | 0.00 | 0.00 | 0.00 | 25 | 1017.6 |
| 20260905192737 | 86 | 38 | 1.7 | 7.8 | 0.00 | 0.00 | 0.00 | 24 | 1017.6 |
| 20260905191816 | 86 | 26 | 2.6 | 8.7 | 0.00 | 0.00 | 0.00 | 25 | 1017.6 |
| 20260905190916 | 86 | 16 | 2.6 | 8.7 | 0.00 | 0.00 | 0.00 | 24 | 1017.6 |
| 20260905190016 | 87 | 10 | 2.6 | 10.4 | 0.00 | 0.00 | 0.00 | 23 | 1017.6 |
| 20260905185437 | 87 | 10 | 3.5 | 10.4 | 0.00 | 0.00 | 0.00 | 24 | 1017.6 |
| 20260905184516 | 86 | 17 | 3.5 | 8.7 | 0.00 | 0.00 | 0.00 | 25 | 1017.6 |
| 20260905183616 | 87 | 16 | 2.6 | 8.7 | 0.00 | 0.00 | 0.00 | 24 | 1017.6 |
| 20260905182716 | 86 | 11 | 3.5 | 8.7 | 0.00 | 0.00 | 0.00 | 24 | 1017.6 |
| 20260905181816 | 86 | 10 | 2.6 | 7.8 | 0.00 | 0.00 | 0.00 | 25 | 1017.6 |
| 20260905180916 | 85 | 350 | 2.6 | 8.7 | 0.00 | 0.00 | 0.00 | 24 | 1017.6 |
| 20260905180016 | 85 | 5 | 1.7 | 8.7 | 0.00 | 0.00 | 0.00 | 24 | 1017.6 |
| 20260905175416 | 85 | 344 | 0.9 | 6.1 | 0.00 | 0.00 | 0.00 | 25 | 1017.6 |
| 20260905174516 | 84 | 346 | 0.9 | 7.0 | 0.00 | 0.00 | 0.00 | 26 | 1017.6 |
| 20260905173616 | 83 | 341 | 1.7 | 4.3 | 0.00 | 0.00 | 0.00 | 28 | 1017.6 |
| 20260905172737 | 82 | 315 | 1.7 | 8.7 | 0.00 | 0.00 | 0.00 | 29 | 1017.6 |
| 20260905171816 | 82 | 17 | 1.7 | 7.8 | 0.00 | 0.00 | 0.00 | 30 | 1017.6 |
| 20260905170916 | 83 | 54 | 0.9 | 6.1 | 0.00 | 0.00 | 0.00 | 30 | 1017.6 |
| 20260905170016 | 83 | 56 | 0.0 | 3.5 | 0.00 | 0.00 | 0.00 | 30 | 1017.6 |
| 20260905165416 | 83 | 56 | 0.0 | 2.6 | 0.00 | 0.00 | 0.00 | 30 | 1017.6 |
| 20260905164516 | 82 | 56 | 0.9 | 4.3 | 0.00 | 0.00 | 0.00 | 32 | 1017.6 |
| 20260905163616 | 80 | 57 | 0.9 | 5.2 | 0.00 | 0.00 | 0.00 | 35 | 1017.6 |
| 20260905162737 | 80 | 57 | 0.9 | 5.2 | 0.00 | 0.00 | 0.00 | 34 | 1017.6 |
| 20260905161837 | 78 | 0 | 0.0 | 0.0 | 0.00 | 0.00 | 0.00 | 33 | 1017.6 |
| 20260905160916 | 78 | 58 | 0.0 | 2.6 | 0.00 | 0.00 | 0.00 | 33 | 1017.6 |
| 20260905160016 | 77 | 0 | 0.0 | 0.0 | 0.00 | 0.00 | 0.00 | 34 | 1017.6 |
| 20260905155416 | 77 | 0 | 0.0 | 0.0 | 0.00 | 0.00 | 0.00 | 34 | 1017.6 |
| 20260905154516 | 74 | 0 | 0.0 | 0.0 | 0.00 | 0.00 | 0.00 | 39 | 1017.6 |
| 20260905153616 | 73 | 68 | 0.0 | 4.3 | 0.00 | 0.00 | 0.00 | 42 | 1017.6 |
| 20260905152716 | 71 | 68 | 0.9 | 4.3 | 0.00 | 0.00 | 0.00 | 44 | 1017.6 |
| 20260905151816 | 71 | 68 | 0.0 | 2.6 | 0.00 | 0.00 | 0.00 | 41 | 1017.6 |
| 20260905150916 | 71 | 48 | 0.0 | 1.7 | 0.00 | 0.00 | 0.00 | 40 | 1017.6 |
| 20260905150016 | 70 | 40 | 0.9 | 4.3 | 0.00 | 0.00 | 0.00 | 41 | 1017.6 |
| 20260905145416 | 70 | 253 | 0.0 | 1.7 | 0.00 | 0.00 | 0.00 | 41 | 1017.6 |
| 20260905144516 | 70 | 249 | 0.0 | 2.6 | 0.00 | 0.00 | 0.00 | 40 | 1017.6 |
| 20260905143616 | 69 | 0 | 0.0 | 0.0 | 0.00 | 0.00 | 0.00 | 40 | 1017.6 |
| 20260905142716 | 68 | 0 | 0.0 | 0.0 | 0.00 | 0.00 | 0.00 | 43 | 1017.6 |
| 20260905141837 | 67 | 271 | 0.0 | 3.5 | 0.00 | 0.00 | 0.00 | 44 | 1017.6 |
| 20260905140916 | 66 | 271 | 0.9 | 3.5 | 0.00 | 0.00 | 0.00 | 44 | 1017.6 |
| 20260905140037 | 66 | 0 | 0.0 | 0.9 | 0.00 | 0.00 | 0.00 | 44 | 1017.6 |
| 20260905135416 | 66 | 0 | 0.0 | 0.0 | 0.00 | 0.00 | 0.00 | 45 | 1017.6 |
| 20260905134516 | 66 | 271 | 0.0 | 2.6 | 0.00 | 0.00 | 0.00 | 44 | 1017.6 |
| 20260905133616 | 65 | 271 | 0.0 | 2.6 | 0.00 | 0.00 | 0.00 | 44 | 1017.6 |
| 20260905132716 | 65 | 0 | 0.0 | 0.0 | 0.00 | 0.00 | 0.00 | 45 | 1017.6 |
| 20260905131837 | 65 | 0 | 0.0 | 0.0 | 0.00 | 0.00 | 0.00 | 46 | 1017.6 |
| 20260905130916 | 65 | 236 | 0.0 | 2.6 | 0.00 | 0.00 | 0.00 | 45 | 1017.6 |
| 20260905130016 | 64 | 99 | 0.0 | 2.6 | 0.00 | 0.00 | 0.00 | 47 | 1017.6 |
| 20260905125416 | 63 | 84 | 0.0 | 0.9 | 0.00 | 0.00 | 0.00 | 48 | 1017.6 |
| 20260905124516 | 63 | 0 | 0.0 | 0.0 | 0.00 | 0.00 | 0.00 | 48 | 1017.6 |
| 20260905123616 | 62 | 0 | 0.0 | 0.0 | 0.00 | 0.00 | 0.00 | 50 | 1017.6 |
| 20260905122737 | 63 | 84 | 0.0 | 0.9 | 0.00 | 0.00 | 0.00 | 49 | 1017.6 |
| 20260905121816 | 63 | 84 | 0.0 | 1.7 | 0.00 | 0.00 | 0.00 | 48 | 1017.6 |
| 20260905120917 | 64 | 84 | 0.0 | 0.9 | 0.00 | 0.00 | 0.00 | 46 | 1017.6 |
| 20260905005411 | 86 | 205 | 3.5 | 9.6 | 0.00 | 0.00 | 0.00 | 20 | 1016.5 |
| 20260905004511 | 87 | 205 | 2.6 | 10.4 | 0.00 | 0.00 | 0.00 | 19 | 1016.5 |
| 20260905003611 | 87 | 220 | 1.7 | 7.8 | 0.00 | 0.00 | 0.00 | 19 | 1016.5 |
| 20260905002711 | 88 | 206 | 1.7 | 7.0 | 0.00 | 0.00 | 0.00 | 19 | 1016.5 |
| 20260905001811 | 88 | 213 | 2.6 | 10.4 | 0.00 | 0.00 | 0.00 | 19 | 1016.5 |
| 20260905000911 | 90 | 273 | 0.0 | 1.7 | 0.00 | 0.00 | 0.00 | 19 | 1016.5 |
| 20260905000011 | 90 | 239 | 0.0 | 4.3 | 0.00 | 0.00 | 0.00 | 18 | 1016.5 |
| 20260904235411 | 90 | 248 | 0.9 | 7.8 | 0.00 | 0.00 | 0.00 | 18 | 1016.5 |
| 20260904234511 | 90 | 203 | 1.7 | 10.4 | 0.00 | 0.00 | 0.00 | 19 | 1016.5 |
| 20260904233611 | 90 | 211 | 0.9 | 10.4 | 0.00 | 0.00 | 0.00 | 18 | 1016.5 |
| 20260904232711 | 90 | 157 | 1.7 | 13.0 | 0.00 | 0.00 | 0.00 | 19 | 1016.5 |
| 20260904231811 | 89 | 179 | 2.6 | 9.6 | 0.00 | 0.00 | 0.00 | 20 | 1016.5 |
| 20260904230911 | 89 | 193 | 3.5 | 9.6 | 0.00 | 0.00 | 0.00 | 20 | 1016.5 |
| 20260904230011 | 90 | 185 | 2.6 | 8.7 | 0.00 | 0.00 | 0.00 | 20 | 1016.5 |
| 20260904225411 | 90 | 178 | 1.7 | 8.7 | 0.00 | 0.00 | 0.00 | 20 | 1016.5 |
| 20260904224511 | 90 | 175 | 3.5 | 10.4 | 0.00 | 0.00 | 0.00 | 20 | 1016.5 |
| 20260904223611 | 89 | 151 | 2.6 | 10.4 | 0.00 | 0.00 | 0.00 | 20 | 1016.5 |
| 20260904222711 | 89 | 107 | 1.7 | 7.8 | 0.00 | 0.00 | 0.00 | 22 | 1016.5 |
| 20260904221811 | 89 | 181 | 2.6 | 8.7 | 0.00 | 0.00 | 0.00 | 20 | 1016.5 |
| 20260904220911 | 89 | 184 | 0.0 | 4.3 | 0.00 | 0.00 | 0.00 | 24 | 1016.5 |
| 20260904220011 | 89 | 58 | 0.9 | 5.2 | 0.00 | 0.00 | 0.00 | 26 | 1016.5 |
| 20260904215411 | 89 | 60 | 1.7 | 5.2 | 0.00 | 0.00 | 0.00 | 27 | 1016.5 |
| 20260904214511 | 86 | 61 | 0.9 | 5.2 | 0.00 | 0.00 | 0.00 | 27 | 1016.5 |
| 20260904213632 | 86 | 0 | 0.0 | 0.0 | 0.00 | 0.00 | 0.00 | 28 | 1016.5 |
| 20260904212711 | 86 | 0 | 0.0 | 0.9 | 0.00 | 0.00 | 0.00 | 28 | 1016.5 |
| 20260904211811 | 86 | 0 | 0.0 | 0.0 | 0.00 | 0.00 | 0.00 | 28 | 1016.5 |
| 20260904210911 | 85 | 61 | 0.0 | 3.5 | 0.00 | 0.00 | 0.00 | 30 | 1016.5 |
| 20260904210011 | 85 | 61 | 0.9 | 4.3 | 0.00 | 0.00 | 0.00 | 29 | 1016.5 |
| 20260904205411 | 86 | 61 | 0.0 | 3.5 | 0.00 | 0.00 | 0.00 | 29 | 1016.5 |
| 20260904204532 | 86 | 56 | 0.9 | 7.0 | 0.00 | 0.00 | 0.00 | 29 | 1016.5 |
| 20260904203632 | 86 | 27 | 0.9 | 3.5 | 0.00 | 0.00 | 0.00 | 29 | 1016.5 |
| 20260904202711 | 86 | 24 | 0.9 | 7.0 | 0.00 | 0.00 | 0.00 | 28 | 1016.5 |
| 20260904201811 | 87 | 27 | 0.9 | 5.2 | 0.00 | 0.00 | 0.00 | 27 | 1016.5 |
| 20260904200932 | 86 | 26 | 0.9 | 5.2 | 0.00 | 0.00 | 0.00 | 29 | 1016.5 |